Regional Weather Roundup
Issued by NWS

Home | Current Version | Previous Version | Graphics & Text | Print | Product List | Glossary On
Versions: 1 2 3 4 5 6 7 8 9 10 11 12 13 14 15 16 17 18 19 20 21 22 23 24 25 26 27 28 29 30 31 32 33 34 35 36 37 38 39 40 41 42 43 44 45 46 47 48 49 50
306
ASUS45 KCYS 190810
RWRWY

WYOMING REGIONAL WEATHER ROUNDUP
NATIONAL WEATHER SERVICE CHEYENNE WY
100 AM MST FRI JAN 19 2018

NOTE:  "FAIR" INDICATES FEW OR NO CLOUDS BELOW 12,000 FEET
WITH NO SIGNIFICANT WEATHER AND/OR OBSTRUCTIONS TO VISIBILITY.

WYZ001-190900-
YELLOWSTONE NATIONAL PARK

CITY           SKY/WX    TMP DP  RH WIND       PRES   REMARKS
LK YELLOWSTONE   N/A     33  30  88 VRB3      29.77F
W YELLOWSTONE  NOT AVBL

$$
WYZ002>013-054>058-071-098>099-190900-
NORTHERN WYOMING

CITY           SKY/WX    TMP DP  RH WIND       PRES   REMARKS
JACKSON        CLOUDY    40  28  62 S13       29.79F WCI  32
CODY           FAIR      37  27  67 NE3       29.63F
GREYBULL       FAIR      20  16  84 N3        29.66F
WORLAND        FAIR      39  29  67 S20       29.68F WCI  29
SHERIDAN       FAIR      47  27  45 E6        29.59F
BUFFALO        FAIR      48  26  42 S17       29.64F
GILLETTE       FAIR      47  28  47 SW32G45   29.61F
HULETT         FAIR      45  30  57 S22       29.64F
NEWCASTLE      FAIR      45  23  42 N5        29.76F

$$
WYZ014>020-022>026-101>103-190900-
CENTRAL WYOMING

CITY           SKY/WX    TMP DP  RH WIND       PRES   REMARKS
BIG PINEY      FAIR      15  12  88 E5        29.88F WCI   8
PINEDALE       FAIR      14  14 100 E3        29.89F
DUBOIS         FAIR      41  23  48 W20       29.76F
LANDER         FAIR      38  23  55 VRB6      29.76F WCI  33
RIVERTON       FAIR      25  17  72 S3        29.77F
CASPER         FAIR      43  19  38 SW23G30   29.80F
DOUGLAS        FAIR      49  22  34 SW12      29.79F

$$
WYZ021-027>030-104>119-190900-
SOUTHERN WYOMING

CITY           SKY/WX    TMP DP  RH WIND       PRES   REMARKS
EVANSTON       FAIR      39  25  57 SW17      29.90F WCI  30
FORT BRIDGER   FAIR      42  24  49 SW16      29.93F
ROCK SPRINGS   FAIR      33  18  53 S5        29.91F WCI  29
DIXON            N/A     31  16  54 NW9       30.01F WCI  22
RAWLINS        FAIR      39  12  33 W12G24    29.90F WCI  32
SARATOGA       FAIR      36  14  41 SE15G21   29.94F WCI  26
LARAMIE        FAIR      40  15  36 SW7       29.92F
CHEYENNE       FAIR      44  17  33 W8        29.88F
TORRINGTON     FAIR      42  28  57 NW5       29.78F

$$




USA.gov is the U.S. government's official web portal to all federal, state and local government web resources and services.